Race Results for
2011 USA Cycling MTB Cross-Country Nationals
Sun Valley, ID
(Event Information)
Super D on 07/17/2011

Note: Ranking points are NOT upgrade points. An explanation of ranking points can be found here.


Men - Cat 1/2/3 - Junior - 1-18

 Place Points NameCity, StateTime USAC #BibTeam
1300.00Mason Bond   Cedar Ridge, CA20:38.8 321392  2028 Nevada Union High School Mt Bike Team/Nevada Union Mt Bike Team
2301.47Bobby Zidek   Chico, CA20:45.1 304633  2038 Whole Athlete/Whole Athlete-Specialized
3302.94Taylor Smith   Novato, CA20:48.5 320608  2011 Whole Athlete/Whole Athlete-Specialized
4304.41Cody Phillips (1 - Cat2)   Altadena, CA21:09.6 318790  2039 
5305.88Gino Pastore   Durango, CO21:13.0 230628  2045 Durango Devo
6307.35Casey Williams   Big Bear City, CA21:13.4 227522  2024 
7308.82Max Houtzager   Ross, CA21:40.8 286995  2012 Whole Athlete Specialized
8310.29Cody Cupp (2 - Cat2)   Twisp, WA21:41.0 328698  2014 Methow Valley Cycling
9311.76Kolby Preble   Forestgrove, OR21:57.1 284714  2030 
10313.24Peter Karinen   Painesdale, MI21:57.5 349180  2023 
11314.71Jonathan Kaufman   Sanrafael, CA22:13.0 313630  78 Whole Athlete/Whole Athlete-Specialized
12316.18Sepp Kuss   Durango22:14.0 276598  2008 Durango Devo
13317.65Evan Williams   Big Bear City, CA22:20.0 255194  2005 
14319.12Derek Hobden   Diablo, CA22:23.8 356743  2025 NRL Racing Development Team
15320.59Jake Richards   Callaway, MN22:40.1 265418  2042 
16322.06Christopher Blevins   Durango, CO23:06.7 255493  2021 Durango Devo
17323.53nicolas prevot   Felton, PA23:15.5 348572  68 0
18325.00Conner Smith   Eden, UT23:24.0 302180  99 Ogden Cycling Education Foundation
19326.47Dakota Pittman (1 - Cat3)   Mount Airy, NC23:24.3 309440  2009 
20327.94Justin Noel   Boulder23:27.4 318254  2022 
21329.41Larsson Johnson   Huntsville, UT24:05.1 302276  2043 Ogden Cycling Education Foundation/Autoliv Cycling Club
22330.88Wyatt Morin   Roseville, CA24:16.1 266930  2013 Team Mad Cat
23332.35Zachary Skalet   Rocklin, CA24:16.4 335076  2002 Placer Foothill Mountain Bike Club
24333.82Ellis LIndenthal   Salinas, CA24:17.3 356154  2016 Velo Club Monterey Inc.
25335.29Ian Stowe   Santa Cruz, CA24:28.2 321906  85 
26336.76parker eide   El Dorado Hills, CA24:30.4 319802  77 
27338.24Kendall Smith   Summerville, OR24:30.9 345228  2020 
28339.71Jackson Negri   Eagle, ID24:41.9 317934  2018 
29341.18Jan Warren (2 - Cat3)   Campton Hills, IL25:08.4 333318  2019 
30342.65Mitch Stockwell   Orangevale, CA25:16.1 335936  69 
31344.12Javier Colton   Bend, OR25:39.1 351054  2007 
32345.59zachary sedivy   Kalispell, MT25:43.3 341146  2047 
33347.06Ross Ellwood   Boulder, CO25:46.3 298726  2001 
34348.53John Curtis   Eagle, ID25:46.5 320356  2044 BYRDS (Boise Young Rider Dev Squad)
35350.00Edward Kronfli   Santa Clara, CA27:01.0 304958  2032 Pasadena Athletic Assoc (PAA)/PAA/REMAX
36351.47Justin Clark   Idaho Falls, ID27:23.8 345836  2031 
37352.94Scott McGill   Fallston, MD27:30.1 281178  2037 
38354.41Jaxon Suttlemyre (3 - Cat3)   Coeur D Alene, ID28:06.0 199726  2027 Coeur d 'Alene Velo Racers (CDAVR)/Vertical Earth
39355.88Taylor Squillaci   Albuquerque, NM28:18.6 303845  88 
40357.35Dillen Maurer   Los Angeles, CA28:24.6 317704  2015 Pasadena Athletic Assoc (PAA)/PAA/REMAX
41358.82Scott Funston   Black Diamond, WA28:28.8 270185  2026 Old Town Bicycle (OTB)
42360.29Bo Franklin   Taos, NM28:29.9 259760  2017 Team F.I.Taos
43361.76Andrew Cunningham   Grand Junction, CO32:17.9 338210  2010 
44363.24Jack Dean   Boulder, CO33:08.0 318372  2035 
45364.71Riley Kopesky   Hubertus, WI34:09.8 298099  94 
46366.18Lukas Giesen   Albuquerque, NM45:26.1 303640  2004 
DNSRyan Geiger   Flagstaff, AZDNS 258285  2003 AZ Devo
DNSLuke Allen   Abilene, TXDNS 237533  2040 
DNSNigel Graham   Louisville, KYDNS 201969  2041 
DNSBo Knickman   Newbury Park, CADNS 316296  2046 Amgen Cycling Club
DNFJeremiah Newman   Nevada City, CADNF 298604  98 
DNFSpence Peterson (Cat2)   Mill Valley, CADNF 235691  2006 Above Category Racing
DNFChase Dickens   Mount Airy, NCDNF 253981  2029 
DNFW Grant Ellwood   Boulder, CODNF 298725  2033 
DNFdamon sedivy   Kalispell, MTDNF 341322  2034 
DNFErik Johnson   Incline Village, NVDNF 319034  2048 NorCal High School Mountain Bike League

Men - Cat 1/2/3 - Senior - 19-29

 Place Points NameCity, StateTime USAC #BibTeam
1200.00Greg Krieger   Fort Collins , CO21:49.4 255039  2119 
2203.57Chris Thibodeau   Grass Valley, CA21:50.9 241949  2120 Sho-Air/SERT/SHO-AIR/ SERT
3207.14Andrew Juiliano (1 - Cat3)   Santa Clarita, CA22:00.1 202561  2110 
4210.71Nathan Petter   Fort Collins, CO22:03.5 267319  2124 Team Rio Grande/Team Rio Grande Mountain Bike
5214.29Taylor Reed   Eagle, ID22:34.8 249638  2112 
6217.86Derek Yarra   San Francisco, CA22:35.0 306457  2111 
7221.43Daniel Stuart   Davis, CA22:40.1 207649  2113 
8225.00James Whitesides (2 - Cat3)   Kirkland, WA23:08.4 192020  2121 
9228.57Dennis Yuroshek   Tempe, AZ23:08.9 277459  2115 
10232.14Stephane Roch   San Diego, CA23:23.3 199861  84 SKLZ Cycling Team
11235.71Chris Ellis   Bellingham, WA23:23.6 257872  2126 Cycling Northwest
12239.29Andrew Duensing (3 - Cat3)   Alamo, CA23:32.7 297709  79 
13242.86Thomas Magrath   Coeur D'alane, ID23:49.7 79934  83 
14246.43Tyler Chandler   Ketchum, ID23:50.2 355524  2122 
15250.00Zane Enders   Pleasant View, UT23:52.4 264767  2123 University of Utah
16253.57Sam Chovan (4 - Cat3)   Steamboat Springs, CO24:42.0 229072  2114 Mafia Racing
17257.14Michael Wieser   Boise, ID24:49.7 227734  138 Wild Rockies Inc/Wild Rockies race team
18260.71Dakota Dale   Cable, WI24:59.6 310795  2127 
19264.29Joshua Murdock   Baldwin, MD26:00.6 327552  2118 
20267.86Corey Bray   San Francisco, CA26:07.9 348518  2116 
21271.43Gary Nagle   Reno, NV28:08.4 302983  86 University of Nevada-Reno/Nevada Cycling
DNSCorey Bellinger   Ketchum, IDDNS 191946  80 
DNFBrian Jorgensen   BendDNF 186022  2117 Central Oregon Community College

Men - Cat 1/2/3 - Master - 30-39

 Place Points NameCity, StateTime USAC #BibTeam
1200.00BILLY DAMON   Auburn, CA21:33.2 259824  65 Bicycle Emporium
2203.41Jon Freckleton   Steamboat Springs, CO21:54.0 12316  76 Steamboat Velo p/d MOOTS
3206.82Douglas Schuler (1 - Cat2)   Boulder, CO22:06.5 262367  2057 Boulder Cycle Sport
4210.23Brian Butler   Salinas, CA22:13.7 250239  2061 
5213.64Donald Morehouse (1 - Cat3)   Reno, NV22:22.8 133559  2060 
6217.05Scott Morris (2 - Cat3)   Tucson, AZ22:24.0 99896  2055 
7220.45Matthew McNeal   Ketchum, ID22:34.5 243050  2056 Sun Valley Road and Dirt Camps. L.L.C.
8223.86Scott Leland   Reno, NV22:56.0 179817  2066 
9227.27Justin Mann (2 - Cat2)   Lake Elsinore, CA23:00.2 271958  2063 Rock N' Road Cyclery
10230.68justin stevenson   Hailey, ID23:02.0 356987  2054 
11234.09Ben Stein   Eagle, ID23:30.2 238282  2065 
12237.50James O'Neal (3 - Cat3)   Chatsworth, CA23:39.7 82091  2050 Team Hammer Nutrition
13240.91Jonathan Lombardo   Newton, NJ23:55.0 21498  2068 Finkraft
14244.32Jeff Ward   Boise, ID24:07.2 82968  2059 
15247.73Troy Clark   Idaho Falls, ID24:28.8 243884  2069 
16251.14Shea Andersen   Seattle, WA25:11.7 1582  2051 
17254.55Kris Lowe   San Juan Capistrano, CA26:25.3 356464  2144 
18257.95David Dornaus (4 - Cat3)   Marshfield, MA27:31.9 160736  2049 Corner Cycle Cycling Club
19261.36Nathan Haslick (5 - Cat3)   Canton27:41.3 163685  2053 International Christian Cycling Club
20264.77Kelly Jorschumb   Boise, ID28:12.0 279421  2067 
21268.18cory smith   Ketchum, ID31:32.0 351236  2052 
22271.59Brian Lowe   South Lake Tahoe, CA35:31.7 355924  2143 
DNSDustin Phillips (Cat2)   Kalispell, MTDNS 79753  2058 Team Hammer Nutrition
DNSJosh Rhea   Salt Lake City, UTDNS 152206  2064 
DNFRyon Butterfield   Pocatello, IDDNF 138474  2070 Idaho Cycling Enthusiasts (ICE)

Men - Cat 1/2/3 - Master - 40-49

 Place Points NameCity, StateTime USAC #BibTeam
1250.00Michael Pastore (1 - Cat3)   Avon, CO21:31.7 85683  2080 
2252.88Stanislaus (Stosh) Bankston   Olympic Valley, CA21:32.6 2494  66 Bicycle Emporium
3255.77Scott Robinson   Ketchum, ID21:38.7 30214  2074 Sun Valley Road and Dirt Camps. L.L.C.
4258.65TJ Henshall (1 - Cat2)   Bend, OR21:58.5 15869  2075 WebCyclery Racing/WebCyclery.com
5261.54John Pitton   Bellingham, WA22:02.9 214418  2087 Logos Research Systems
6264.42Gregg Galletta   Dobbs Ferry, NY22:42.4 97363  2079 
7267.31Todd Byle (2 - Cat3)   Hailey, ID23:07.0 139507  2072 
8270.19Mario Correa   Chino Hills, CA23:11.6 192099  2094 Team Velosport Club/Sho-air/Rock 'n Road
9273.08Chris ODonnell   Ketchum, ID23:39.8 342786  2082 
10275.96Daniele Farnedi   Orinda, CA23:54.1 177571  2073 Team Roaring Mouse
11278.85Alec Petro (3 - Cat3)   Duxbury, MA23:55.3 216739  2090 Corner Cycle Cycling Club
12281.73Stephen Smith   Montrose , CA23:57.1 33294  2088 Montrose Cycling Club/Montrose Bike Shop- CW Builders
13284.62Douglas Johnson   Hood River, OR24:02.6 137553  2096 
14287.50Tim Taylor   Lewiston, ID24:09.1 310869  2086 Two Wheeler/Specialized
15290.38John Vipiana   San Anselmo24:23.3 36721  70 Olympic Club
16293.27Tim Gaertner   Whitefish, MT24:32.8 81059  2071 Great Northern Cycling Club
17296.15Richard McChrystal   Boise, ID24:35.1 130689  2083 
18299.04Brian Price   Boise, ID24:36:07 256458  2081 GS Casella/Look! Save a Life
19301.92Matthew Engel (2 - Cat2)   Bend, OR25:00.1 302544  2091 
20304.81Howard Skalet   Rocklin, CA25:58.6 357280  139 
21307.69Ed Binnie (4 - Cat3)   Ketchum, ID26:05.5 3721  90 
22310.58Caleb Baukol   Ketchum, ID28:21.9 175746  82 
23313.46Gary Kyle   Boise, ID28:35.6 148013  2089 
24316.35Dodi Nov   Mercer Island, WA30:24.8 275175  2093 Jet City Velo/ByrneInvent
25319.23roger villmow   Woodland Park, CO30:46.6 293337  2085 Cheyenne Mountain High School/Jr. High
26322.12James Lang   Boise, ID34:07.6 126474  2095 Joyride Cycles-ID
DNSBrian Morgan (Cat3)   Boise, IDDNS 25035  2078 
DNSCully Todd   Coeur D Alene, IDDNS 97194  2077 
DNFMike Gile   Mercer Island, WADNF 205884  2084 Jet City Velo/ByrneInvent

Men - Cat 1/2/3 - Master - 50-99

 Place Points NameCity, StateTime USAC #BibTeam
1300.00Jordan Swenson   Park City, UT22:27.2 34806  2101 Cole Sport/cole sport
2305.36Chris Grove   Flagstaff, AZ23:06.9 14295  2097 Absolute Bikes Team
3310.71Gary Thacker   Boulder, CO23:46.1 35266  2104 Justin's / Titus Mountain Bike Team
4316.07Steve Cullinan   Paradise Valley, AZ24:53.8 87674  89 Racelab Cycling Team/Racelab Team WM U25
5321.43Hal Butler   Highlands Ranch, CO25:34.9 247110  2107 
6326.79Arthur White (1 - Cat3)   Hohokus, NJ25:36.0 37936  2098 
7332.14Paul Zarubin   Truckee, CA25:49.3 196952  2106 
8337.50Whiz McNeal (1 - Cat2)   Ketchum, ID26:07.5 117309  2036 
9342.86Chris Kastner   Hailey26:28.4 92093  2000 
10348.21Luther Barden   Ruckersville, VA26:37.7 266277  2103 
11353.57Shawn Grossman   Boise, ID26:58.2 14291  2099 Joyride Cycles-ID
12358.93Will Fernyhough   Bellevue, WA27:16.2 151282  2108 Jet City Velo
13364.29Donald Goldberg   Holladay, UT28:05.6 287308  2100 
14369.64Russ Fay   Orangevale, CA33:05.5 11347  2102 Team Velosport Club/Sho-air/Rock 'n Road
15375.00Tim Gaffney   Angel Fire, NM35:12.5 268679  2105 Team F.I.Taos
DNSNorman Graham   Louisville, KYDNS 247403  2109 

Men - Pro

 Place Points NameCity, StateTime USAC #BibTeam
1100.00Adam Craig   Bend, OR19:37.0 94510  2152 
2101.97Carl Decker   Bend, OR19:38.7 9007  2139 
3103.95Mike West   Boulder, CO19:53.1 37786  666 yeti
4105.92Aaron Bradford   Santa Cruz, CA20:00.3 156335  2158 FamilyCycling/Specialized/SRAM
5107.89Macky Franklin   Taos20:05.1 215111  2159 
6109.87Adam Snyder   Westminster, MA20:11.8 122912  2150 Jamis Bikes
7111.84Gregory Carpenter   Durango, CO20:26.0 191158  2136 Team Edge
8113.82Clinton Claassen   El Dorado Hills, CA20:27.5 278360  2140 Team Mad Cat
9115.79Alexander Grant   Salt Lake City, UT20:30.4 101189  1111 Cannondale
10117.76Chad Cheeney   Durango, CO20:45.1 104313  2151 Durango Devo
11119.74Nick Gibson   Portland, OR20:48.1 235515  2062 Shimano
12121.71Cody Kaiser   El Dorado Hills, CA20:49.9 202564  2137 California Giant Strawberries/Specialize
13123.68Nate Byrom   Penn Valley, CA20:51.2 237491  2141 Nevada Union High School Mt Bike Team
14125.66Logan Wetzel   Renton Wa21:02.3 216334  2131 Noble Bikes
15127.63Robert Marion   Mount Airy, NC21:15.0 220597  2138 Carpediem Racing
16129.61Peter Ostroski   Intervale, NH21:15.5 147735  91 Wild Things/Rocky Mountain
17131.58Spencer Paxson   Bellingham, WA21:17.6 152029  2147 Kona Bicycles
18133.55Joe Schneider   Durango, CO21:36.2 217452  2157 
19135.53Nicholas Weighall   Santa Cruz , CA21:39.1 128164  2135 California Giant Cycling/California Giant Berry Farms/Specialized
20137.50William Curtis   San Rafael, CA21:39.5 233101  95 Whole Athlete-Specialized
21139.47David Harrison   Sun Valley, ID21:42.3 15243  2153 Wild Rockies Inc/Wild Rockies Racing Team
22141.45Silas Hesterberg   Hailey, ID21:44.3 150751  2128 
23143.42Thomas Sampson   Holderness, NH21:51.5 160766  92 
24145.39L Alexander Gardner   Seattle, WA21:52.6 12826  2142 
25147.37Brent Pontius   Ogden, UT22:00.0 272234  2154 Roosters/Bikers Edge
26149.34Will Patterson   Stanford, CA22:04.7 257436  2146 Whole Athlete
27151.32Aaron Elwell   Topeka, KS22:10.4 115327  2149 
28153.29Derek Hermon   Big Bear Lake, CA22:12.5 15935  2156 
29155.26Nitish Nag   Union City, CA22:19.7 216175  2155 NRL Racing Development Team
30157.24Colby Pastore   Petaluma, CA22:33.7 256426  2161 
31159.21Casey Coffman   Reno, NV22:38.9 211458  64 Felt/WTB/X Fusion
32161.18Shawn Mitchell   Boise, ID22:54.1 24621  2092 
33163.16Stevie Cullinan   Paradise Valley, AZ23:04.5 126775  2134 Racelab Cycling Team
34165.13Dustin Sweet   Reno, NV23:29.1 34787  67 Reno Wheelmen
35167.11Travis Glysson   Anthem, AZ23:32.0 305194  2145 AZ Devo
36169.08Sam Young   Ketchum, ID24:31.8 119453  2133 
37171.05DeJay Birtch   Tucson, AZ29:08.4 175788  2132 Niner Stans Ergon
38173.03Miguel Ramos   Lake Elsinore, CA40:42.7 182950  2162 
DNSPhil Grove   Seattle , WADNS 224538  2129 Sportsman & Ski Haus
DNSAdam Looney   Anchorage, AKDNS 283977  2130 University of Wyoming
DNSZach McDonald   Bainbridge Island, WADNS 228238  2148 
DNSRussell Stevenson   Seattle, WADNS 74147  2160 
DNSNaish Ulmer   Hood River, OR#N/A 175253  4001 
DNFNoah Tautfest   Northfield, VTDNF 268345  72 Bicycle Express/ Kona

Women - Cat 1/2/3 - Junior - 1-18

 Place Points NameCity, StateTime USAC #BibTeam
1300.00Kaylee blevins   Durango, CO23:31.8 278472  2165 
2308.33Kate Courtney   Kentfield, CA24:15.5 307752  2164 Whole Athlete/Whole Athlete-Specialized
3316.67Victoria Yoham (1 - Cat3)   San Rafael, CA26:02.2 297967  2167 Whole Athlete/Whole Athlete-Specialized
4325.00Mackinzie Stanley   Fairfax27:11.4 298013  2169 Whole Athlete
5333.33India Waller   Durango, CO27:49.6 355742  140 Durango Devo
6341.67Elizabeth Shull   Libertyville, IL28:55.8 264453  75 
7350.00Avery Morin   Roseville, CA30:56.6 266914  2163 Team Mad Cat
8358.33McKenzie Melcher   Mentone, CA31:09.2 354114  2166 
9366.67Tiziana DeHorney   Albuquerque, NM31:10.6 269499  2168 Get Out! New Mexico
10375.00Madelaine Melcher   Mentone, CA31:40.7 354116  2170 
DNSNina Karinen   Painesdale, MIDNS 349166  2171 
DNSEmily Shull   Libertyville, ILDNS 264455  96 Alberto's Sport

Women - Cat 1/2/3 - Senior - 19-29

 Place Points NameCity, StateTime USAC #BibTeam
1200.00Simone Kastner   Hailey, ID25:05.7 349750  2187 Mud Honey
2212.50Sara Schroeder   Hailey, ID26:10.4 298178  2191 Mud Honey
3225.00Petra Davis   Bozeman, MT28:25.7 274416  2192 
4237.50Brianne Spiersch   Salinas, CA29:28.1 295715  2193 
5250.00Karina Mahoney   Seattle, WA32:09.7 291034  2189 
6262.50Rebecca Zink   Indianapolis, IN48:30.2 278382  2188 Team Nebo Ridge
DNFPhilicia Marion   Mount Airy, NCDNF 220598  2190 

Women - Cat 1/2/3 - Master - 30-39

 Place Points NameCity, StateTime USAC #BibTeam
1200.00Tara Walhart (1 - Cat2)   San Francisco, CA25:26.4 133103  2172 
2237.50Abbie Durkee   Des Moines, IA26:42.4 171510  2175 Whole Athlete/Whole Athlete-Specialized
3275.00Anne Cheeney   Durango, CO32:27.5 272068  2173 Durango Devo

Women - Cat 1/2/3 - Master - 40-99

 Place Points NameCity, StateTime USAC #BibTeam
1250.00Helene Drumm   San Anselmo, CA24:42.3 10046  2177 
2256.82Heidi Volpe   Topanga, CA26:32.6 262291  2178 
3263.64Jill Hardiman   White Salmon, WA26:33.9 304003  2181 
4270.45Carrie Edwards   Sausalito, CA27:18.2 99021  2184 Zeitgeist Racing Cycling Team
5277.27Gretchen Flint (1 - Cat3)   Ketchum, ID28:01.7 11859  81 Mud Honey/Mud Honey Cycling
6284.09Mercedes QuinnBlair   Kirkland, WA28:09.0 356669  2179 
7290.91Darlene Phillips   Ansonia, CT28:39.9 225420  784 
8297.73Susan Katsilometes   Pocatello, ID30:18.4 154908  2176 
9304.55Elaine Bothe   Portland Oregon31:20.7 337050  2186 
10311.36Melissa Boyd   Corvallis, OR47:45.1 303214  2180 
DNSEllen White (Cat3)   Hohokus, NJDNS 97355  2182 
DNFMarti Merritt   Ruckersville, VADNF 298634  2183 
DNFJulia Violich   San Anselmo, CADNF 156830  2185 Peanut Butter & Co. TWENTY 12/Peanut Butter & Co. TWENTY12

Women - Pro

 Place Points NameCity, StateTime USAC #BibTeam
1100.00Lea Davison   Jericho, VT23:06.5 164014  73 Specialized Factory Racing
2106.25Kelli Emmett   Plymouth Mi23:27.3 156146  2174 Giant Bicycles
3112.50Elizabeth English   Bozeman, MT24:00.6 300128  74 
4118.75Sarah Tescher   Durango, CO24:48.0 182273  2194 
5125.00Krista Park   Madison, SD24:51.7 203842  2196 Cannondale/NoTubes
6131.25Rebekah Rottenberg   Davis, CA25:01.5 288266  2197 Davis Bike Club/Davis Bike Club Race Team
7137.50Allison Mann   Lake Elsinore, CA25:10.4 268587  114 
8143.75Sarah Kaufmann   Park City, UT25:30.3 204404  71 Team Roaring Mouse
9150.00Joele Guynup   Mckinleyville, CA25:35.2 241807  2199 
10156.25Carolynn Romaine   Cornwall-on-hudson, NY25:38.2 170451  2195 
11162.50Rebecca Rusch   Ketchum, ID26:08.4 240196  2200 Specialized
12168.75Maria Pastore   Eagle, CO27:20.8 298902  100 
13175.00Olivia Harkness   Santa Barbara, CA27:27.0 294473  2198 Mafia Racing
DNSCorinne Prevot   East Burke, VTDNS 324548  DNS 

Report missing or incorrect license numbers

Volkswagen
Sierra NevadaShimanoBonk BreakerUSACDFSpyCUORE
UCI USA Cycling is the official governing body for all disciplines of competitive cycling in the United States. The 501c3, membership-based organization aims both to achieve sustained success in international cycling competition and to grow competitive cycling in America while delivering an exceptional customer experience.
View Children's Online Privacy Protection Policy
US Olympic Committee